[Iaude] MPEC V13: 2016 UH101 [a=2.08,e=0.53,i=4.7,H=22.7]

mpec at si.edu mpec at si.edu
Wed Nov 2 14:59:56 EDT 2016


M.P.E.C. 2016-V13                                Issued 2016 Nov. 2, 18:55 UT
 
     The Minor Planet Electronic Circulars contain information on unusual
         minor planets and routine data on comets.  They are published
    on behalf of Division F of the International Astronomical Union by the
          Minor Planet Center, Smithsonian Astrophysical Observatory,
                          Cambridge, MA 02138, U.S.A.

             Prepared using the Tamkin Foundation Computer Network

                              MPC at CFA.HARVARD.EDU
            URL http://www.minorplanetcenter.net/    ISSN 1523-6714


                                  2016 UH101
 
Observations:
     K16UA1H  C2016 10 23.47215 02 34 36.177-22 40 16.92         18.9 iLEV013F51
     K16UA1H  C2016 10 23.49283 02 34 42.415-22 38 12.33         18.6 iLEV013F51
     K16UA1H  C2016 10 23.50315 02 34 45.551-22 37 09.67         18.6 iLEV013F51
     K16UA1H* C2016 10 30.41359 03 00 46.25 -14 02 16.7          19.9 rREV013G45
     K16UA1H  C2016 10 30.42367 03 00 47.46 -14 01 42.5          19.6 rREV013G45
     K16UA1H  C2016 10 30.42850 03 00 48.06 -14 01 26.2          19.5 rREV013G45
     K16UA1H  C2016 10 30.42856 03 00 48.08 -14 01 25.3          19.8 rREV013G45
     K16UA1H  C2016 10 30.43349 03 00 48.66 -14 01 08.7          19.3 rREV013G45
     K16UA1H  C2016 10 30.43852 03 00 49.31 -14 00 51.6          19.9 rREV013G45
     K16UA1H  C2016 10 30.43858 03 00 49.34 -14 00 51.9          19.6 rREV013G45
     K16UA1H KC2016 11 01.51900 03 05 21.84 -12 11 35.0          19.3 VqEV013E23
     K16UA1H KC2016 11 01.53659 03 05 23.41 -12 10 44.4          18.9 VqEV013E23
     K16UA1H KC2016 11 01.54538 03 05 24.25 -12 10 19.2          19.5 VqEV013E23
     K16UA1H KC2016 11 01.58557 03 05 27.85 -12 08 23.9          19.9 VqEV013E23
     K16UA1H KC2016 11 01.59876 03 05 29.10 -12 07 45.2          19.2 VqEV013E23
     K16UA1H  C2016 11 02.23407 03 06 41.15 -11 38 53.0          18.7 RoEV013926
     K16UA1H  C2016 11 02.24134 03 06 41.78 -11 38 33.1          18.6 RoEV013926
     K16UA1H  C2016 11 02.25069 03 06 42.59 -11 38 07.4          18.7 RoEV013926
     K16UA1H HC2016 11 02.31967 03 06 48.35 -11 34 57.9          20.5 VoEV013691
     K16UA1H HC2016 11 02.32685 03 06 48.92 -11 34 37.3          19.9 VoEV013691
     K16UA1H HC2016 11 02.33403 03 06 49.52 -11 34 18.2          19.9 VoEV013691
     K16UA1H  C2016 11 02.34270 03 06 50.20 -11 33 54.9          19.6 VqEV013I52
     K16UA1H  C2016 11 02.34665 03 06 50.52 -11 33 43.7          19.6 VqEV013I52
     K16UA1H  C2016 11 02.34841 03 06 50.68 -11 33 38.6          19.8 VqEV013I52
     K16UA1H  C2016 11 02.35017 03 06 50.81 -11 33 34.1          19.6 VqEV013I52
 
Observer details:
691 Steward Observatory, Kitt Peak.  Observer M. T. Read.  0.9-m f/3 reflector
    + CCD.
926 Tenagra II Observatory.  Observers M. Schwartz, P. R. Holvorcem.  Measurer
    M. Schwartz.  0.81-m f/7 Ritchey-Chretien + CCD.
E23 Arcadia.  Observer A. Hidas.  0.35-m f/1.9 reflector + CCD.
F51 Pan-STARRS 1, Haleakala.  Observers B. Gibson, T. Goggia, S. Kahale,
    A. Schultz, M. Willman.  Measurers P. Veres, K. Chambers, S. Chastel,
    L. Denneau, H. Flewelling, M. Huber, E. Lilly, E. Magnier, R. Wainscoat,
    C. Waters, R. Weryk.  1.8-m Ritchey-Chretien + CCD.
G45 Space Surveillance Telescope, Atom Site.  Observers M. Blythe, R. Brungard,
    P. Festler, T. McVey, J. Paige, G. Spitz.  Measurers M. Cornell, A. Klein,
    J. Ruprecht, G. Ushomirsky, J. Varey, D. Woods.  3.5-m f/1 reflector + CCD.
I52 Steward Observatory, Mt. Lemmon Station.  Observer G. J. Leonard.
    Measurers E. J. Christensen, D. C. Fuls, A. R. Gibbs, A. D. Grauer,
    J. A. Johnson, R. A. Kowalski, S. M. Larson, G. J. Leonard, R. G. Matheny,
    R. L. Seaman, F. C. Shelly.  1.0-m reflector + CCD.
 
Orbital elements:
2016 UH101                                               Earth MOID = 0.0154 AU
Epoch 2016 July 31.0 TT = JDT 2457600.5                 MPC
M 342.89113              (2000.0)            P               Q
n   0.32861888     Peri.  175.51216     +0.98983994     +0.14208790
a   2.0797336      Node   176.30663     -0.13287382     +0.93760260
e   0.5267091      Incl.    4.70604     -0.05061076     +0.31735215
P   3.00           H   22.7           G   0.15           U   7
Residuals in seconds of arc
161023 F51  0.1-  0.3-    161030 G45  0.3+  0.4-    161102 691  0.1-  0.0
161023 F51  0.1-  0.1-    161101 E23  0.8+  0.2-    161102 691  0.4-  0.8+
161023 F51  0.2+  0.4+    161101 E23  0.1-  0.1-    161102 691  0.2-  0.0
161030 G45  0.4+  0.0     161101 E23  0.4+  0.2-    161102 I52  0.0   0.3-
161030 G45  0.1-  0.1-    161101 E23  0.3-  0.7-    161102 I52  0.0   0.0
161030 G45  0.1-  0.3-    161101 E23  0.6+  0.1-    161102 I52  0.2+  0.2+
161030 G45  0.1+  0.4+    161102 926  0.2-  0.0     161102 I52  0.0   0.2-
161030 G45  0.4-  0.2+    161102 926  0.1-  0.0
161030 G45  0.1-  0.1+    161102 926  0.1+  0.0

Ephemeris:
2016 UH101               a,e,i = 2.08, 0.53, 5                   q = 0.9843
Date    TT    R. A. (2000) Decl.     Delta      r     Elong.  Phase     V
2016 10 03    18 16 56.1 -37 04 16   0.06162 0.9957    83.7    92.8    19.9
...
2016 10 18    01 44 24.8 -34 31 07   0.06003 1.0401   135.8    41.9    18.3
...
2016 10 26    02 46 54.4 -18 54 42   0.09574 1.0755   146.8    30.4    19.1
...
2016 11 01    03 04 18.7 -12 37 36   0.1278  1.1063   151.3    25.5    19.6
2016 11 02    03 06 13.8 -11 49 07   0.1335  1.1118   151.9    24.8    19.7
2016 11 03    03 07 57.7 -11 03 35   0.1392  1.1173   152.5    24.2    19.8
...
2016 11 09    03 15 28.5 -07 17 24   0.1753  1.1522   155.4    20.9    20.3
...
2016 11 17    03 21 09.8 -03 34 17   0.2283  1.2025   157.4    18.5    20.8
...
2016 12 02    03 27 46.5 +01 31 57   0.3450  1.3049   154.1    19.3    21.9

A. U. Tomatic                (C) Copyright 2016 MPC           M.P.E.C. 2016-V13




More information about the Iaude mailing list